Terug naar catalogus

KUIPER-00647

ActiefCommunicatieLEO
NORAD 69790·PAYLOAD·🇺🇸 United States

Gelanceerd Jul 2, 2026 vanaf Cape Canaveral Space Force Station

Loading…

Volgende Passages (komende 24 uur)

TLE

VersSource: CelesTrak SupGP

Epoch: Sep 14, 2026, 16:09 UTC

1 69790C 26151AD  26257.67334491 -.00003737  00000+0 -37064-3 0  2576
2 69790  51.8940 249.8895 0010837  43.7776 227.9230 14.91253682    15

Volg KUIPER-00647 in realtime met AllMySat

Download on the App Store